Location: McFarlands Corners
(41.4117°N, 81.3382°W)
Time: 14:00:45
(UTC+00:00)

Courier 1B Rocket - Pass Details

Date: 16 February 2026
Orbit: 920 x 1201 km, 28.2° (Epoch: 10 March)

Event Time Altitude Azimuth Distance (km) Brightness Sun altitude
Rises 02:09:33 0° 235° (SW) 3,581 8.4 -36.0°
Reaches altitude 10° 02:12:38 10° 221° (SW) 2,666 7.5 -36.6°
Enters shadow 02:13:38 14° 214° (SW) 2,419 7.2 -36.7°
Maximum altitude 02:17:35 24° 170° (S) 1,925 - -37.4°
Drops below altitude 10° 02:22:46 10° 120° (ESE) 2,804 - -38.4°
Sets 02:26:06 0° 107° (ESE) 3,810 - -39.0°
